Theta_e
334 335 340 345 346 347 347 347 347 348 347 347 347 347 346 346 344 343 343 343 344 344 344 344 346 346 347 348 348 348 347 346 345 345 345 345 344 344 345 345 345 345 346 346 347 347 346 346 346 345 346 345 345 344 343 342 341 340 339 337 338 339 339 339 340 338 336 336 336 337 337 337 337 337 338 338 337 337 337 335 334 331 331 332 334
335 338 339 342 346 346 348 348 348 347 347 347 346 346 345 344 344 343 342 343 343 344 344 343 343 345 345 345 346 346 345 345 344 344 345 345 345 344 344 343 344 344 344 344 345 345 345 346 346 346 346 344 344 344 342 340 339 339 338 338 339 339 340 340 340 340 339 337 336 336 335 334 336 339 338 338 337 336 335 334 332 330 328 336 336
334 337 340 343 346 347 348 347 347 348 348 347 346 346 345 343 342 343 345 343 342 342 342 342 342 344 344 344 344 343 343 344 343 342 343 343 343 343 344 344 344 345 344 344 344 344 345 345 345 345 345 343 342 342 340 340 338 338 337 338 339 339 339 339 339 340 340 340 334 334 334 337 338 338 339 339 336 334 332 331 332 335 331 336 335
335 337 338 344 347 348 348 347 347 347 346 346 345 346 345 344 342 342 342 342 341 341 341 341 341 341 342 342 342 342 342 341 341 341 341 341 342 342 342 342 342 342 342 342 342 342 343 344 344 344 343 342 342 340 339 338 338 337 337 338 337 337 337 338 338 340 340 338 334 332 330 327 332 337 339 338 334 334 336 336 335 336 335 335 334
335 337 338 341 345 347 347 347 347 347 346 345 344 344 343 343 341 341 341 341 340 339 340 342 341 341 341 341 342 342 341 342 342 342 342 345 347 347 346 346 345 343 342 342 343 342 343 343 343 343 342 341 339 339 338 337 336 336 336 336 337 337 337 338 339 340 341 336 334 331 325 326 327 332 335 337 335 335 334 334 334 334 334 333 331
334 334 337 338 345 346 347 347 346 347 346 344 344 343 342 341 341 343 343 343 343 342 342 342 340 340 342 341 341 340 340 342 341 341 342 345 346 346 346 345 345 345 343 343 342 343 343 343 342 343 341 340 339 338 337 337 336 335 336 336 337 337 339 339 341 337 339 337 333 326 325 326 327 327 333 333 334 334 333 333 333 332 332 331 329
335 335 336 339 344 345 346 346 346 346 346 344 344 342 340 340 340 342 343 342 342 341 342 341 342 342 341 339 341 342 342 342 342 343 343 346 346 344 344 343 342 342 341 341 342 342 342 342 342 341 340 340 339 337 336 335 335 335 336 336 337 337 338 338 339 336 334 330 324 325 326 327 327 327 333 333 332 332 332 332 331 332 333 331 333
335 336 337 340 344 345 345 346 346 346 346 345 344 342 340 339 340 342 342 341 341 342 341 341 342 342 341 339 337 341 341 341 343 342 343 346 346 345 344 344 345 344 344 344 343 342 342 341 341 341 341 340 339 337 336 335 335 335 336 336 336 337 338 337 339 334 332 324 323 325 325 325 325 326 333 334 333 332 331 331 331 332 332 330 332
334 335 338 342 343 344 345 345 346 346 346 344 342 342 342 343 342 341 339 339 340 340 340 339 337 337 338 338 341 340 339 342 341 341 341 344 344 344 344 343 343 342 342 342 341 341 341 340 340 341 340 339 337 336 335 335 335 335 335 336 336 337 338 341 334 332 327 323 322 322 323 323 325 327 332 332 331 332 332 332 331 330 330 331 329
333 335 341 342 343 342 344 345 346 346 345 343 342 342 342 342 341 340 338 341 341 341 339 339 340 339 340 340 342 341 341 341 340 340 341 344 344 345 345 344 342 341 342 341 341 342 341 340 339 339 339 338 336 335 335 334 334 335 335 336 337 337 337 337 332 330 325 323 322 326 330 333 326 327 329 332 331 330 329 331 333 333 331 330 328
333 337 342 343 343 342 345 346 347 346 345 343 343 342 341 342 341 340 339 339 340 341 340 339 339 342 342 342 341 341 341 341 340 340 342 342 342 342 342 342 341 341 340 339 339 340 340 340 339 339 338 337 335 335 334 334 334 334 335 335 336 336 336 335 329 324 324 324 324 325 329 333 325 326 333 331 331 330 333 332 332 330 330 330 330
336 341 342 343 344 342 345 345 346 345 344 343 343 341 341 341 340 339 338 339 342 340 339 339 341 341 341 341 341 341 340 339 339 341 341 342 343 342 342 342 341 341 340 340 340 339 339 340 338 338 337 336 335 334 334 334 334 334 334 334 334 334 335 333 326 323 323 324 326 327 328 329 327 328 332 332 331 334 332 332 330 330 329 331 330
341 342 343 343 342 341 343 345 344 345 345 344 342 340 339 338 338 340 340 340 340 339 339 339 340 340 340 340 340 339 339 338 338 338 338 341 342 342 342 341 341 339 339 338 338 338 338 339 339 338 337 336 335 335 334 334 333 333 333 333 333 333 333 332 324 323 323 323 324 326 327 328 332 332 330 332 333 333 333 333 333 330 329 329 329
340 341 342 343 342 344 340 342 343 344 345 344 343 344 341 338 339 342 342 341 340 337 337 339 340 339 338 338 338 337 337 337 337 338 342 342 341 340 340 340 339 340 339 338 338 337 338 337 337 338 338 336 335 335 334 334 333 333 333 333 332 332 330 330 328 323 323 323 325 326 325 327 332 337 335 332 332 333 334 333 332 330 330 329 328
339 341 342 343 343 343 342 340 342 342 343 344 344 343 341 339 339 342 342 342 340 337 336 336 337 337 336 336 337 338 338 339 338 338 339 340 339 339 339 339 339 339 338 338 337 337 337 337 337 337 337 336 336 335 334 334 333 333 333 333 334 332 329 326 325 322 323 325 324 326 324 326 335 337 336 336 334 332 333 333 333 331 330 330 328
342 341 342 342 342 342 342 342 337 338 339 341 341 342 343 343 343 343 342 341 340 338 337 336 336 336 337 339 339 338 338 339 341 340 341 340 338 338 338 338 337 337 337 338 337 337 336 336 337 337 337 336 335 335 334 333 333 332 333 332 333 330 327 324 323 322 321 322 324 323 323 326 335 335 337 336 336 335 333 333 332 332 332 333 332
341 340 340 341 342 342 341 340 336 333 333 334 337 339 342 344 344 343 342 342 341 339 337 337 339 340 340 340 340 340 339 339 339 339 338 338 339 340 338 338 338 337 337 337 338 336 336 336 336 336 335 335 334 334 333 333 333 333 331 331 331 329 326 323 324 322 322 325 325 323 323 327 333 335 335 335 336 335 332 333 331 331 331 332 332
338 340 340 341 341 341 341 339 337 338 336 333 332 336 340 342 342 342 342 342 341 341 341 342 342 342 341 340 339 339 338 338 338 338 338 337 335 337 338 338 338 337 337 337 337 336 336 335 335 334 334 334 333 332 332 332 331 331 331 331 330 328 325 324 323 322 322 326 323 325 323 332 332 334 335 335 336 336 334 333 332 332 333 335 335
332 338 339 339 340 340 340 339 337 337 336 335 335 333 333 338 340 340 340 341 340 339 339 338 338 339 337 336 335 333 333 333 334 335 335 336 334 332 335 337 336 336 335 335 335 334 334 334 333 333 333 333 332 331 331 332 330 330 331 329 328 324 322 323 324 323 322 321 322 322 324 331 331 333 334 334 336 336 335 335 333 335 334 335 334
329 330 335 337 339 339 339 338 338 337 337 335 335 335 331 332 336 337 337 337 337 336 335 333 332 332 331 331 329 329 329 329 329 330 330 332 331 329 332 335 334 334 335 335 333 333 333 333 332 332 331 330 331 331 332 330 329 330 329 329 325 321 322 322 323 322 321 322 322 321 328 330 332 334 334 334 334 335 335 334 334 335 335 335 335
331 329 328 335 335 338 339 338 339 338 337 336 335 335 331 329 330 331 333 334 334 333 330 326 324 324 325 325 327 330 329 328 330 330 325 326 324 327 332 336 334 335 334 335 334 333 332 332 332 330 330 331 330 330 329 330 329 328 328 326 321 321 322 323 323 322 321 320 321 323 329 329 331 334 334 334 334 334 334 333 334 334 335 335 335
325 326 328 329 331 330 332 334 338 338 337 337 337 335 333 334 334 333 332 330 328 327 328 330 333 328 324 326 330 329 327 328 329 333 328 329 326 325 329 334 335 334 334 334 334 333 332 332 332 331 331 331 328 320 321 324 326 328 325 320 319 321 321 322 323 323 323 322 321 325 329 329 330 334 334 334 334 334 333 333 333 334 333 334 334
324 325 327 328 328 328 329 328 331 335 335 336 336 334 334 334 334 334 334 330 331 331 331 331 330 329 328 328 328 327 327 330 330 330 327 321 325 323 327 329 330 330 332 332 332 332 332 331 330 329 331 329 322 321 325 322 320 321 319 320 322 322 324 325 324 324 323 323 322 327 328 330 331 333 334 334 335 334 333 333 334 335 335 334 335
325 325 326 330 328 327 327 328 328 329 332 333 336 333 331 332 333 332 333 333 332 333 331 331 330 330 329 329 327 327 328 327 329 329 326 324 322 322 324 325 326 327 328 327 327 329 330 330 329 329 326 323 322 324 322 321 322 322 324 323 324 324 323 326 326 324 324 326 323 326 328 329 331 332 333 333 334 333 333 333 334 334 334 335 335
325 326 326 328 327 328 327 328 328 328 330 330 332 330 332 330 329 328 330 329 331 330 329 329 329 330 330 328 327 327 329 327 326 326 326 327 324 323 322 324 325 325 322 325 323 324 322 322 321 321 321 322 324 321 321 321 322 324 323 325 324 322 323 325 328 325 323 323 321 324 326 328 330 331 333 333 333 332 333 333 333 333 334 334 334
325 324 325 326 328 328 327 328 328 327 329 328 329 328 330 328 327 327 328 329 329 328 328 329 328 329 328 327 327 326 326 326 326 324 326 328 327 326 325 326 326 326 323 325 326 325 322 325 325 324 323 322 322 322 321 322 323 324 323 323 323 323 323 324 324 326 323 324 321 323 326 327 329 331 332 332 332 333 333 333 333 334 334 334 334
323 322 324 325 328 328 328 328 327 327 328 328 328 327 327 327 327 327 327 328 329 329 327 327 328 328 327 327 326 325 324 325 325 325 324 325 326 326 326 326 326 324 322 324 323 324 324 322 322 322 321 320 322 321 322 323 323 323 324 323 322 324 322 322 322 325 325 323 319 321 325 327 328 330 330 332 332 332 332 332 332 334 333 333 333
323 322 323 324 326 328 328 328 327 327 327 327 327 326 325 326 327 326 326 326 328 327 326 327 329 328 327 326 325 325 324 324 324 323 324 324 325 324 323 324 324 322 323 321 323 321 321 320 320 319 320 319 319 321 322 325 325 324 324 322 322 325 323 322 324 325 322 321 320 319 322 324 326 328 329 331 331 331 332 332 332 334 334 333 333
323 322 323 324 326 328 328 327 327 327 327 326 326 326 325 325 326 325 325 326 327 327 326 326 327 327 327 326 325 324 324 324 325 324 325 324 323 323 323 323 323 322 321 321 321 321 320 320 318 319 320 322 321 322 322 324 324 322 322 323 323 322 321 322 323 323 322 321 320 318 320 322 325 327 327 329 330 331 330 331 332 332 332 333 332
326 323 323 323 325 327 328 328 327 327 327 327 326 326 326 325 326 326 325 324 325 327 326 325 326 326 327 326 325 325 324 322 324 323 326 324 323 321 321 322 322 322 321 322 321 321 321 320 320 321 322 323 323 324 322 321 322 321 323 324 323 321 320 320 323 323 320 322 320 317 318 320 324 325 325 325 327 328 329 329 329 329 331 332 328
327 324 324 323 325 326 326 327 328 326 327 326 326 326 326 326 327 326 326 326 325 327 326 326 326 325 325 326 325 325 325 324 324 324 325 325 325 324 323 323 322 322 323 324 323 322 323 322 322 323 323 323 323 323 322 321 321 321 321 322 322 321 321 321 321 321 321 319 319 319 317 318 321 323 322 321 325 325 326 327 328 328 328 329 329
327 326 325 325 325 326 326 326 327 327 327 327 326 327 327 326 327 327 327 327 327 326 326 325 324 325 326 327 326 325 324 324 325 326 325 326 325 324 324 323 324 323 324 324 324 323 322 323 325 324 324 323 324 322 321 320 321 321 320 322 322 321 320 321 321 321 319 319 319 319 318 317 317 320 321 320 323 323 324 326 326 327 327 328 328
328 329 328 326 325 325 326 326 326 327 327 327 327 327 327 328 327 327 328 329 326 326 326 326 326 325 325 327 327 326 325 325 326 327 325 326 325 325 324 325 325 325 325 324 324 324 323 322 322 323 323 323 321 322 322 321 319 319 321 321 320 321 321 321 320 320 318 318 317 317 319 317 315 315 316 317 320 320 322 324 325 325 326 327 326
328 328 330 328 327 328 327 327 326 327 326 327 327 327 327 327 327 327 327 328 326 325 325 327 326 326 327 327 327 326 325 325 326 326 325 324 324 325 324 325 324 325 326 326 322 322 322 322 323 322 322 323 321 322 320 318 318 318 319 321 319 318 320 321 320 319 318 318 317 317 317 316 315 314 313 314 316 317 321 323 322 322 323 322 321
328 328 329 329 328 328 328 327 325 326 325 325 325 326 327 327 327 327 327 327 327 326 325 326 326 326 327 327 328 326 326 326 326 327 326 325 324 323 323 324 326 324 324 323 324 324 324 323 320 321 321 320 318 319 319 318 317 319 319 321 320 319 320 321 321 319 318 317 318 316 317 314 312 314 311 308 310 313 317 321 321 320 319 319 318
329 329 329 330 329 329 327 326 325 326 326 325 325 326 327 327 327 325 326 327 326 326 325 326 326 325 326 327 328 327 327 327 327 327 327 326 324 324 324 325 324 325 325 325 326 323 321 322 322 321 318 318 318 319 319 317 318 318 319 317 319 320 320 320 319 318 317 318 317 316 316 314 311 309 311 309 308 309 313 317 318 316 315 315 316
330 330 330 330 329 329 327 327 326 325 326 325 325 325 327 328 327 326 327 327 326 325 325 326 326 326 325 327 328 327 327 327 327 328 327 327 325 325 325 326 326 324 324 324 323 324 322 322 319 319 319 317 317 317 318 317 318 319 318 319 318 318 318 320 319 317 319 317 314 313 314 311 308 309 307 307 308 307 309 312 315 314 312 310 313
330 330 330 330 330 329 329 329 328 327 327 326 326 326 327 327 327 327 326 328 327 326 326 326 326 325 325 325 329 328 327 327 326 327 327 327 326 325 325 326 326 325 323 322 322 322 322 321 318 319 321 319 318 316 316 318 318 318 316 317 318 319 320 318 315 314 316 315 314 311 310 308 307 306 305 305 307 308 307 310 312 311 309 309 309
330 330 330 330 330 329 329 328 329 329 328 327 326 327 327 326 327 328 327 327 328 327 326 325 325 326 325 326 328 328 326 327 326 326 326 325 325 326 326 325 326 324 324 324 322 323 321 320 320 320 320 319 318 317 317 316 317 317 316 317 317 319 317 315 315 316 314 314 312 311 310 307 306 304 303 304 304 306 306 306 304 305 307 309 306
329 329 328 329 329 329 329 329 329 330 330 329 328 327 327 325 325 325 326 326 327 326 328 327 327 326 326 327 328 329 328 328 327 326 326 325 325 325 326 326 325 325 323 322 321 320 321 320 320 320 319 319 318 319 318 317 314 314 315 318 319 318 316 314 315 314 314 313 310 305 304 305 305 303 304 304 305 303 303 303 303 304 306 307 307
327 328 328 328 329 328 327 328 330 330 329 329 328 327 326 326 325 326 326 326 327 327 327 328 329 328 329 330 329 329 330 329 328 327 326 324 326 326 326 325 326 325 324 323 322 321 321 322 321 320 319 317 318 317 317 316 314 312 315 316 318 317 316 316 316 314 313 312 306 303 302 303 302 303 303 303 303 302 301 302 302 303 303 303 301
326 327 327 328 328 329 328 328 329 330 329 329 329 329 328 327 326 326 327 327 326 326 325 327 329 330 330 331 331 330 331 330 328 329 327 326 326 326 325 325 325 324 324 324 323 319 321 321 321 318 319 318 317 319 319 317 312 311 311 311 310 315 315 315 314 314 313 309 304 303 303 303 303 302 303 302 301 301 301 301 301 301 300 300 297
326 326 327 327 328 328 328 328 328 329 329 329 329 329 329 329 328 327 327 326 327 328 328 327 328 329 330 330 331 331 331 331 330 328 329 328 327 326 326 326 326 325 324 323 322 322 322 322 321 320 317 319 317 318 318 318 311 313 312 309 306 307 309 311 313 313 313 307 303 302 303 302 303 303 301 301 301 301 301 300 300 300 300 300 296
324 325 326 326 327 327 328 327 327 328 328 328 326 329 330 330 329 329 328 328 326 327 328 328 328 329 329 330 331 332 331 331 332 330 330 330 328 327 327 326 326 326 325 324 323 323 323 323 323 322 320 317 317 317 317 319 318 314 308 307 306 307 303 306 308 309 309 305 303 302 302 302 302 301 300 300 299 300 299 301 299 299 299 300 297
324 324 325 326 327 327 328 328 327 327 328 327 326 328 328 328 329 329 328 328 326 326 327 327 329 328 329 329 331 332 332 331 332 332 329 330 330 329 328 328 327 326 326 325 324 324 324 324 324 323 321 319 316 316 317 318 319 320 313 308 304 301 301 305 308 306 305 301 300 300 301 300 298 299 299 299 299 299 299 299 299 299 299 299 296
324 324 325 325 326 326 326 327 327 327 327 328 327 327 327 327 327 327 325 325 325 325 325 326 327 327 327 330 331 333 333 332 331 332 331 329 330 330 329 328 327 327 326 326 326 325 325 324 324 324 322 321 318 316 313 316 318 319 320 314 310 304 303 306 303 299 305 303 300 302 301 297 297 298 298 298 298 297 298 298 299 299 300 298 296
324 325 325 325 325 325 326 327 327 327 328 328 328 326 327 327 327 327 327 326 325 325 327 327 328 328 328 328 330 332 333 332 331 331 332 330 330 330 330 329 328 328 327 326 326 325 325 325 325 324 323 321 319 315 315 315 314 317 319 318 313 310 311 306 300 301 299 301 300 299 298 296 296 296 297 297 297 296 296 297 299 301 299 296 294
324 324 324 325 325 325 326 327 327 326 328 328 328 327 326 326 326 326 326 326 326 325 327 328 329 328 328 328 329 330 331 333 332 331 331 331 330 330 330 330 329 329 327 327 326 326 325 325 324 325 324 321 320 318 316 314 314 314 317 318 315 312 309 308 305 302 298 296 296 298 298 296 295 295 296 296 296 296 295 296 298 300 298 295 293
321 323 324 325 325 325 325 327 327 327 328 328 328 328 326 326 326 326 325 325 326 326 325 326 327 327 326 327 328 329 330 330 331 331 331 331 329 330 330 330 329 329 326 327 326 326 325 324 323 322 322 320 320 319 319 316 316 316 315 315 313 309 307 306 306 304 300 294 295 294 294 297 294 294 296 296 295 295 296 296 297 299 297 295 293
320 321 322 323 324 325 325 325 326 327 327 328 328 328 327 325 326 325 325 325 324 324 324 324 325 326 325 324 324 327 328 328 329 329 330 330 329 329 330 330 329 329 324 327 326 326 325 325 324 323 321 320 320 320 320 318 317 316 315 313 310 309 306 305 304 302 302 298 294 294 294 293 291 292 294 294 294 295 295 296 297 297 296 294 293
316 319 320 322 322 324 324 324 325 327 326 327 328 328 328 327 326 326 325 324 324 324 323 323 323 323 324 324 324 325 327 328 328 328 329 329 329 328 329 330 329 327 325 326 326 326 325 324 323 322 321 321 320 320 319 318 317 316 315 313 311 310 308 305 304 303 301 295 295 294 293 292 292 291 293 293 294 294 295 295 296 296 295 293 292
Wind_Speed
8 8 5 5 5 10 10 11 13 13 11 12 14 13 13 14 13 12 12 12 13 14 13 12 14 14 16 17 18 18 18 18 18 17 16 16 16 17 17 16 18 18 19 19 19 19 19 19 19 19 20 20 20 20 20 19 19 18 18 17 16 15 14 14 15 19 19 21 21 21 21 20 20 20 20 18 19 20 17 18 16 10 8 13 19
10 8 5 5 4 10 10 10 13 13 12 13 14 14 13 12 12 13 12 13 14 14 13 12 12 14 14 13 15 16 17 16 17 16 16 18 17 17 17 18 18 18 18 18 18 19 18 19 19 19 20 20 20 20 19 19 18 18 17 16 14 14 13 12 12 10 13 19 20 20 19 17 20 21 20 19 19 19 16 16 16 8 6 18 18
9 9 6 5 7 10 11 11 12 13 13 14 14 14 14 13 11 11 14 13 13 13 14 13 13 13 13 13 13 15 16 15 15 15 15 16 16 16 17 18 18 19 19 19 19 18 18 18 19 19 19 19 19 19 18 18 18 17 16 15 14 15 15 14 12 9 9 10 21 18 16 20 21 19 20 20 19 17 13 14 17 15 12 19 17
9 8 7 6 8 11 11 11 12 12 13 13 12 14 13 12 11 12 11 12 13 14 14 13 13 13 13 13 12 13 15 14 14 15 14 14 14 14 15 16 17 18 18 17 17 17 18 18 19 19 19 19 19 18 18 18 17 17 16 15 14 14 14 13 13 11 9 13 17 13 7 6 12 19 18 19 18 18 16 20 20 19 19 18 19
8 8 7 6 7 9 11 12 12 12 12 12 13 13 12 12 12 12 13 13 13 12 13 14 13 13 12 13 12 12 14 15 16 14 14 16 16 18 19 17 18 18 18 17 18 17 18 19 19 19 19 18 18 17 18 17 17 16 15 14 13 13 13 11 10 7 6 13 15 10 7 7 7 16 17 18 18 17 17 17 16 17 18 18 16
7 7 7 7 8 8 10 11 13 13 12 12 13 13 12 11 12 14 14 13 14 14 15 14 13 13 15 14 13 13 14 15 14 14 15 15 15 16 16 16 17 18 18 18 17 17 18 18 18 18 18 18 17 17 17 17 16 15 15 14 14 14 15 14 13 14 8 8 12 6 6 7 7 8 16 17 16 15 18 18 17 16 16 17 14
9 7 7 8 7 7 10 12 13 13 13 13 13 12 12 11 11 14 13 13 13 13 14 14 14 14 14 12 14 14 14 14 14 14 14 15 15 16 15 16 16 16 17 17 17 17 17 17 17 18 17 17 17 17 16 16 16 15 14 14 14 14 13 12 11 14 16 10 6 7 6 7 5 3 17 16 16 17 18 18 16 16 17 15 17
4 6 7 7 7 8 10 12 12 12 13 13 13 12 12 11 11 14 12 12 13 13 14 14 15 15 15 13 12 14 14 14 14 14 15 15 15 14 16 15 16 16 17 17 17 17 17 17 17 17 17 17 17 17 16 16 15 15 14 14 13 13 11 10 8 12 14 9 7 5 7 5 3 3 16 17 18 16 16 15 15 17 16 15 15
3 8 8 9 7 10 9 10 12 12 13 12 12 13 13 12 12 12 10 12 13 12 13 12 12 11 13 13 13 12 13 14 13 13 14 15 13 13 14 15 15 16 16 17 17 16 17 17 16 16 16 17 17 16 16 16 15 14 14 14 14 15 14 10 12 9 9 6 6 6 6 5 5 6 12 16 15 16 16 10 10 15 16 14 15
5 7 10 7 6 10 9 9 12 13 13 12 12 13 13 13 12 12 10 13 13 12 11 12 14 12 13 13 13 13 12 12 13 12 13 14 14 16 16 16 15 15 16 16 16 16 17 16 16 16 16 16 16 16 16 16 14 14 13 14 14 14 14 11 13 11 6 4 6 7 7 8 5 5 11 15 14 12 11 9 9 9 10 15 11
6 9 9 8 8 10 10 10 10 11 12 12 12 12 12 12 12 12 11 10 12 12 11 12 13 14 13 13 12 12 11 11 11 12 13 13 14 14 15 14 15 16 16 15 15 16 16 15 15 15 16 16 15 15 15 15 14 13 13 13 14 14 14 11 11 5 5 7 7 8 9 10 4 4 14 14 12 9 6 10 11 12 13 15 15
10 10 8 7 10 10 9 7 9 11 11 12 13 12 11 11 11 11 11 12 12 12 12 12 12 12 13 13 12 11 11 10 11 12 12 15 14 14 14 14 15 15 15 15 15 15 15 15 15 15 15 14 14 14 14 13 13 12 12 12 13 13 12 9 7 6 5 4 6 6 7 8 5 8 15 12 13 15 16 15 13 12 12 14 14
11 10 8 7 7 9 8 6 8 9 9 11 12 11 10 9 8 11 11 11 11 10 12 12 12 12 12 12 12 11 11 10 9 11 12 13 14 14 14 14 15 14 14 14 13 14 14 14 14 14 14 13 13 13 13 13 12 11 11 11 11 11 11 8 4 3 5 5 5 6 6 6 7 10 9 12 13 14 14 15 14 13 11 11 12
9 9 8 7 6 10 8 6 7 8 8 8 9 8 9 8 10 12 12 10 10 9 10 13 12 11 12 11 11 11 11 10 9 10 13 13 13 13 13 13 14 14 13 13 13 13 13 13 13 13 12 12 12 12 12 12 11 11 11 10 9 7 10 4 5 4 3 4 5 5 5 6 6 15 13 8 9 12 12 13 13 13 12 11 10
8 9 9 7 6 6 8 8 9 8 8 8 7 7 9 8 9 12 12 10 10 9 9 9 10 10 9 10 10 11 10 10 9 8 11 11 12 12 12 12 12 13 12 12 12 12 12 12 12 11 11 10 10 11 11 11 11 11 11 11 11 11 12 6 6 4 4 3 5 5 5 4 10 13 11 12 10 8 10 11 11 12 12 10 6
10 10 9 8 6 6 6 8 10 9 8 8 7 6 7 9 12 12 11 10 10 10 9 9 9 9 10 11 11 10 10 10 11 9 7 8 11 11 11 11 11 12 12 11 11 12 11 11 10 10 9 10 9 10 9 9 9 9 10 9 9 10 10 7 2 2 2 5 5 5 5 4 11 11 11 11 12 9 10 10 10 10 10 11 9
10 8 10 9 8 5 6 6 8 11 9 9 8 7 8 8 9 10 9 10 9 10 9 9 9 12 12 12 11 11 10 10 11 11 11 11 10 8 10 12 12 11 11 11 10 10 10 10 9 9 9 9 9 9 9 8 7 6 6 8 9 10 10 8 2 3 3 3 4 5 5 5 9 11 10 10 11 10 9 10 10 9 8 9 10
6 9 9 10 8 7 6 5 7 7 6 7 8 8 8 8 8 7 8 8 8 7 9 12 11 11 12 11 10 10 10 10 10 10 10 10 10 9 12 12 11 11 10 10 10 9 9 9 9 9 9 9 9 8 7 6 5 3 4 6 8 9 10 10 2 3 4 5 6 5 5 7 10 10 11 10 11 10 10 10 8 9 10 13 13
4 9 8 9 9 8 8 6 5 5 6 5 4 6 8 8 9 9 9 9 9 10 11 10 11 10 10 10 8 9 9 10 9 9 9 8 10 10 9 8 9 10 9 9 8 8 8 8 8 8 8 8 7 7 5 4 2 2 4 5 7 8 10 6 4 4 3 6 5 5 5 9 10 10 11 10 10 10 10 10 10 11 10 10 11
2 4 7 7 8 8 7 7 6 7 6 6 6 6 7 8 9 9 9 9 9 10 10 10 10 10 10 10 10 7 7 7 10 8 10 10 9 8 9 6 7 7 8 8 8 8 8 7 7 7 6 5 4 4 3 2 1 2 4 5 5 7 5 3 4 3 3 6 5 3 7 10 10 10 10 10 11 10 11 12 11 11 11 12 11
1 2 4 7 7 9 9 7 6 7 6 8 7 6 8 9 7 8 9 9 9 9 9 9 8 8 8 9 9 5 4 4 6 5 7 6 8 9 9 9 6 6 6 7 7 7 7 6 5 4 2 1 1 1 2 4 2 2 5 6 3 4 3 3 3 1 3 5 4 5 7 8 10 10 10 10 10 11 10 10 11 12 12 12 13
4 3 3 3 6 7 7 8 7 6 4 7 6 5 5 8 6 5 4 6 7 8 7 5 6 3 7 6 5 5 6 4 4 7 5 5 6 8 8 7 8 7 6 6 6 5 5 5 3 1 2 3 1 1 3 4 4 6 7 5 3 1 2 2 3 2 2 5 4 5 6 6 8 9 10 10 10 11 11 11 11 11 12 12 13
4 4 5 3 2 4 3 5 6 7 5 6 6 6 6 5 6 5 5 5 5 6 5 5 4 4 4 4 5 6 4 4 5 5 5 7 6 7 7 7 6 5 4 3 3 3 3 3 1 2 5 5 2 4 5 4 4 8 6 3 3 2 2 3 4 3 1 5 4 5 5 7 7 8 8 9 10 11 11 12 12 12 13 13 14
5 4 6 5 4 4 4 3 4 4 5 6 6 7 5 5 7 6 6 5 5 5 5 6 5 5 5 5 6 5 7 5 9 12 9 5 4 5 6 7 6 3 3 3 2 2 2 1 2 4 4 3 4 5 0 1 4 2 3 0 3 2 2 1 1 3 2 5 3 5 5 6 7 8 8 9 9 10 10 11 11 12 13 14 13
6 5 4 6 6 5 5 3 5 4 4 4 6 6 6 6 6 7 7 6 6 6 5 6 5 7 6 5 3 5 6 6 5 6 5 5 4 4 4 4 3 3 5 3 3 2 2 2 2 2 4 4 4 2 2 3 4 4 2 2 2 3 3 2 0 1 2 4 3 5 7 7 7 8 8 8 8 9 10 10 11 11 12 12 13
6 5 5 4 6 6 6 4 6 4 4 3 3 4 6 4 4 5 7 6 7 6 4 6 4 6 5 2 5 3 3 5 4 4 5 6 6 5 5 5 5 4 5 4 5 4 4 5 4 5 5 3 1 1 1 1 3 3 3 1 1 3 3 4 3 1 2 3 2 8 8 8 8 9 8 8 8 9 9 10 10 11 12 12 15
7 6 6 4 5 5 6 4 5 5 6 4 5 4 5 4 4 5 4 4 7 6 4 6 4 4 4 2 5 5 2 5 5 4 3 5 5 7 7 6 5 6 6 6 4 4 5 5 5 5 0 2 0 1 2 2 3 3 4 1 1 3 3 4 3 2 3 3 5 9 8 9 10 10 8 9 9 9 10 10 10 11 12 13 14
7 6 7 6 6 6 7 6 5 5 5 4 5 5 3 3 5 5 3 3 5 5 4 6 5 6 4 2 5 5 4 3 4 3 2 2 4 3 3 4 3 3 5 2 4 3 3 3 0 1 0 3 3 3 3 3 2 3 2 1 1 0 1 1 2 0 1 3 5 7 8 11 10 10 10 10 11 11 11 11 11 12 13 14 15
8 6 7 7 6 5 7 8 5 7 5 4 5 5 5 3 3 4 5 3 1 5 5 5 6 6 5 3 4 5 6 4 5 5 4 4 3 2 1 2 3 3 2 1 1 2 2 2 2 3 4 5 4 3 2 1 2 2 2 1 1 0 0 1 2 0 1 3 5 5 13 10 9 10 11 12 12 11 11 11 11 12 13 14 15
8 7 8 7 8 6 7 8 8 7 6 4 5 5 6 5 3 5 5 3 2 4 4 5 5 7 6 4 5 4 5 6 6 6 6 5 4 4 3 3 3 3 3 4 4 4 4 3 3 3 3 4 2 1 0 1 2 3 5 1 1 0 1 2 1 1 3 4 6 5 12 9 7 10 12 12 12 12 12 11 11 11 13 15 16
9 8 7 6 9 8 8 8 9 7 7 6 5 4 6 6 5 5 5 5 4 5 2 3 4 5 6 5 4 4 3 5 6 5 5 5 5 5 5 4 4 3 4 4 4 1 1 4 3 1 1 2 3 3 1 1 2 3 3 0 0 0 1 2 1 3 4 3 2 5 7 11 8 9 12 12 12 11 12 12 12 13 14 15 16
8 9 8 6 9 9 10 9 8 9 9 7 7 6 6 6 5 6 6 6 5 5 3 3 4 4 4 6 4 4 4 3 5 5 5 5 5 6 6 5 5 4 4 4 4 3 3 1 1 1 1 2 3 3 4 3 3 4 4 2 1 1 1 0 1 4 3 1 1 4 5 6 8 11 11 12 12 12 12 13 14 14 15 15 17
5 9 9 8 9 8 9 10 8 9 7 8 7 6 6 6 6 6 6 6 6 5 5 5 5 3 3 6 5 5 4 4 3 4 4 6 6 6 5 6 6 6 6 4 3 1 1 2 2 1 1 3 4 4 4 4 2 2 4 1 2 1 2 1 3 3 3 1 2 4 6 5 5 9 10 11 12 12 12 13 14 15 15 16 17
7 6 10 11 8 6 7 7 9 10 9 7 7 6 6 6 6 6 5 7 6 6 5 6 6 5 4 4 5 4 5 5 3 3 3 3 3 5 5 5 4 4 4 4 2 1 2 3 4 4 4 6 5 6 4 0 1 3 5 2 2 1 0 1 4 3 3 2 3 4 6 6 6 5 5 12 12 11 12 13 14 15 16 17 17
6 6 8 11 10 8 8 7 8 9 9 8 8 8 6 7 7 7 6 7 7 7 6 5 6 6 6 6 5 5 5 5 4 5 4 4 3 3 3 4 5 4 3 4 4 4 5 4 3 3 4 3 3 3 2 3 3 5 4 1 2 1 1 1 4 4 2 2 5 4 6 5 4 6 5 7 8 10 12 13 14 15 16 17 17
10 8 8 8 11 11 9 6 9 9 10 9 7 8 8 7 7 7 6 6 7 6 6 6 6 7 7 6 6 6 5 5 5 4 6 5 4 5 5 4 3 5 4 4 3 4 4 4 4 3 1 3 4 4 4 3 5 4 1 2 1 0 1 0 3 4 3 5 4 4 5 5 3 5 6 6 6 8 12 12 14 16 17 17 17
10 9 9 9 9 10 12 9 10 9 9 9 6 5 7 7 7 7 7 7 7 7 7 7 6 6 7 7 8 7 6 6 5 5 5 6 6 5 6 6 4 4 5 5 4 5 4 3 2 2 3 2 2 4 5 3 0 1 2 1 1 1 2 0 4 3 3 4 4 3 4 4 4 5 5 6 7 6 11 13 11 13 15 17 17
10 10 9 11 11 9 10 10 8 9 7 9 8 7 6 6 7 7 7 7 7 7 7 7 7 7 6 7 8 8 7 6 6 5 5 5 6 6 4 6 6 5 5 4 5 3 3 3 3 3 5 4 4 2 2 2 2 3 2 2 2 1 0 4 2 2 5 4 4 3 4 6 5 4 5 5 6 6 6 11 12 12 13 15 16
9 10 8 9 9 8 8 9 8 8 8 8 8 6 5 4 4 6 7 6 7 6 6 7 7 7 7 6 8 8 8 7 7 6 7 6 5 6 6 5 6 6 5 5 4 4 4 3 4 3 2 3 1 0 0 2 2 3 3 4 3 2 3 2 1 3 4 4 3 4 5 6 5 4 5 4 5 6 5 5 6 5 8 14 15
9 10 10 8 9 8 7 9 9 9 7 6 7 7 6 7 6 5 5 7 6 6 6 6 6 7 7 7 7 8 8 8 8 7 7 7 6 6 7 5 5 6 6 6 6 6 6 5 4 4 3 1 2 1 0 1 2 3 4 5 4 3 4 3 2 4 4 4 3 4 5 5 6 4 4 4 4 4 4 5 6 6 5 9 13
7 9 10 9 10 10 8 11 11 10 8 8 8 8 8 7 6 7 7 6 7 7 7 7 6 6 7 7 8 8 8 9 9 8 8 8 7 7 7 6 6 7 7 7 6 6 7 7 6 5 4 3 3 3 2 2 1 4 4 4 6 3 5 4 4 3 4 3 4 6 5 5 4 5 5 5 5 5 4 5 5 6 5 4 7
9 9 11 12 10 10 11 10 10 11 11 9 8 8 8 8 9 9 7 7 8 9 8 7 8 6 6 9 9 9 10 9 10 9 9 8 8 7 7 7 7 7 7 7 6 6 5 5 5 4 4 5 3 5 4 4 0 2 2 1 1 4 1 3 3 4 4 4 5 5 5 4 3 4 5 6 5 5 4 4 4 5 4 6 6
10 10 10 10 11 11 10 10 9 11 11 11 10 10 9 8 8 7 9 7 6 7 8 8 8 8 8 6 7 8 9 8 9 10 9 9 9 8 7 7 7 8 7 7 7 8 7 6 6 6 5 4 3 2 5 5 4 1 2 1 1 2 1 0 1 3 4 5 5 4 4 4 3 2 5 6 6 5 4 4 4 4 4 5 5
8 8 8 11 10 10 10 11 11 10 11 12 11 9 9 9 9 7 7 7 5 5 6 6 7 8 9 7 6 7 7 8 8 9 9 9 10 10 8 7 8 8 8 8 7 8 7 7 6 7 5 4 3 4 3 5 4 2 2 4 3 6 2 3 4 1 4 5 6 4 3 4 4 3 5 6 6 6 5 5 4 4 4 4 4
10 11 11 11 10 13 13 12 11 12 11 11 12 9 8 7 8 6 5 6 4 5 6 8 9 9 9 9 9 8 9 9 9 9 9 10 10 9 9 9 8 8 8 8 8 8 7 7 8 6 7 6 6 4 4 5 5 5 3 0 1 0 2 4 4 0 2 3 3 5 4 3 4 5 5 5 5 6 5 5 4 4 4 4 4
12 12 12 13 10 9 10 10 9 9 10 10 11 10 9 9 9 9 10 9 10 9 11 12 11 11 12 9 9 10 10 9 9 9 9 9 10 10 9 9 8 8 8 8 7 7 7 7 8 7 8 7 6 6 4 4 5 6 5 3 1 2 2 1 4 3 2 2 5 4 5 4 4 5 5 4 5 4 5 5 4 4 4 4 4
14 11 9 10 10 9 9 10 10 9 8 8 10 10 10 9 11 12 11 11 11 10 8 7 9 9 8 10 10 10 10 10 10 9 9 10 10 9 10 9 9 8 8 7 8 9 8 8 7 8 8 8 6 6 8 7 3 5 5 4 2 1 2 2 4 3 3 1 2 3 2 4 4 5 5 4 4 5 4 5 5 4 4 4 4
13 10 11 10 12 12 10 12 10 10 9 8 11 12 12 11 11 11 11 12 12 11 10 9 8 7 9 10 9 9 11 11 11 10 10 10 10 10 10 10 10 9 9 9 9 8 7 7 8 9 8 8 9 8 7 7 8 5 5 5 4 3 1 0 1 4 5 6 3 1 1 4 4 4 5 5 4 4 4 3 5 4 5 4 4
9 11 12 12 11 10 10 10 12 11 10 12 12 13 13 12 12 11 11 10 10 9 6 7 8 8 8 8 9 9 10 10 10 10 10 10 10 10 10 10 10 10 9 8 8 8 9 8 8 8 8 7 8 8 7 7 7 7 6 5 3 3 2 0 1 3 3 4 3 4 3 0 2 3 5 4 4 4 4 4 5 6 5 5 4
9 7 6 6 8 8 11 12 12 11 11 12 13 13 14 12 12 13 13 11 8 6 6 7 8 8 9 7 7 8 9 8 8 8 9 9 8 9 10 10 10 9 8 9 8 8 8 8 8 8 8 8 6 7 7 7 8 6 8 7 6 3 2 1 2 2 1 2 6 6 6 7 6 4 3 5 5 4 4 5 5 5 5 5 4
8 8 8 8 7 9 10 12 13 10 11 12 12 13 13 13 13 13 13 12 10 8 7 8 7 7 9 9 8 7 7 8 8 8 8 8 8 7 9 9 8 8 8 8 9 9 9 8 8 8 8 9 7 7 6 7 8 7 9 8 9 10 9 8 8 6 5 4 2 3 4 6 7 5 4 5 4 4 4 4 5 5 5 5 4
Wind_Direction
118 121 110 69 71 94 95 98 106 102 96 97 93 88 87 87 89 84 80 84 79 74 72 81 82 70 71 74 73 71 70 69 70 74 79 77 74 75 77 77 76 73 73 73 74 75 75 75 73 71 68 65 64 62 62 60 60 59 59 59 58 60 63 63 64 73 71 69 62 58 57 55 56 58 57 55 52 48 47 53 50 51 54 50 50
121 120 124 74 62 96 94 107 108 108 109 102 99 97 95 93 86 91 96 91 84 83 83 76 81 76 71 72 72 71 73 71 72 69 72 77 76 75 75 75 75 74 71 70 69 70 72 70 70 67 66 66 64 63 62 60 59 59 59 58 54 49 47 47 44 41 62 71 68 59 57 60 59 57 56 56 53 47 44 50 49 46 48 56 51
116 127 111 86 68 112 108 109 110 108 107 104 103 103 100 96 99 89 87 86 90 95 89 83 82 77 75 71 73 73 73 73 75 75 73 76 80 81 82 80 78 77 75 75 74 74 73 74 72 71 68 66 66 63 62 61 59 60 60 56 47 36 28 23 23 29 29 64 70 61 49 50 55 55 56 57 55 54 52 56 53 52 50 50 53
120 113 111 97 93 99 110 113 114 110 110 105 106 108 105 101 93 93 97 96 89 80 81 79 78 82 79 78 83 83 80 82 78 79 79 79 79 90 83 80 80 77 75 75 74 74 73 72 70 69 67 68 66 64 62 60 59 58 60 56 46 36 27 16 11 6 6 71 76 70 52 38 47 52 57 57 54 56 49 50 51 51 51 46 46
115 119 124 120 102 109 114 117 119 115 111 105 102 98 98 100 103 100 93 88 86 90 87 83 84 85 84 86 83 82 85 80 75 78 81 78 80 81 79 79 80 80 79 77 77 76 75 75 74 72 70 68 66 64 62 59 58 57 55 50 40 29 22 14 9 12 25 72 82 79 67 50 45 48 52 59 55 51 50 49 51 49 48 44 41
113 130 140 129 112 115 118 121 120 121 115 109 105 102 101 101 98 93 94 96 98 92 89 90 84 83 81 84 87 91 89 84 82 81 80 79 80 84 89 84 81 82 80 76 74 73 74 74 74 73 71 68 66 64 61 59 59 58 54 44 32 24 15 10 8 45 64 68 75 79 77 62 53 51 53 52 54 53 52 48 45 44 49 46 41
138 138 134 122 114 116 121 124 124 123 116 113 110 104 100 99 100 98 93 91 94 96 95 96 94 88 88 90 97 91 89 88 88 84 80 76 79 79 80 80 81 81 82 79 78 78 75 74 74 73 71 68 66 64 62 60 59 59 52 41 31 23 14 5 359 45 48 44 42 64 62 60 53 61 60 53 49 50 51 52 51 48 54 45 44
124 119 114 99 101 122 124 126 126 125 121 117 114 108 103 99 91 94 94 97 93 91 94 92 92 93 90 86 88 92 92 90 88 85 81 80 81 85 84 82 83 82 82 82 78 77 78 76 72 71 69 66 65 64 62 60 58 55 48 38 28 21 10 3 346 65 57 53 49 63 68 61 56 27 55 49 49 52 47 47 44 47 45 40 51
111 111 106 96 108 119 122 128 128 129 123 118 113 111 107 100 97 96 99 97 95 95 96 96 95 94 98 99 99 96 100 95 93 93 85 78 79 85 90 93 90 85 81 79 79 77 76 74 73 71 69 67 65 63 61 58 57 52 43 33 26 16 10 3 48 71 76 68 61 54 69 68 51 55 52 53 51 47 40 30 40 40 41 42 35
118 107 102 105 115 119 123 132 133 131 121 118 113 112 114 112 107 100 97 95 101 102 104 103 102 101 93 92 89 89 88 87 89 91 86 84 82 78 77 75 74 78 79 78 78 79 78 76 74 71 69 67 65 62 60 59 56 49 38 29 22 15 10 18 41 51 56 65 66 60 64 67 44 45 57 58 55 60 62 34 43 48 42 52 29
123 96 91 102 118 119 127 132 132 129 121 121 119 115 115 113 114 110 107 106 106 105 102 105 105 101 102 97 95 91 89 88 86 91 90 88 81 83 82 84 82 78 79 80 78 78 77 75 73 70 68 67 65 62 60 58 54 44 34 25 17 13 10 28 42 39 56 58 53 56 38 39 60 45 57 53 54 79 82 60 49 38 45 42 27
98 96 98 107 120 122 129 133 129 125 128 126 121 119 118 120 124 118 112 111 113 112 110 101 97 104 104 103 100 98 98 98 103 98 93 88 87 86 84 84 83 81 78 78 80 79 79 77 74 72 70 68 65 63 61 57 50 41 32 23 14 11 1 12 53 40 30 58 69 63 48 21 4 53 56 61 48 46 42 40 40 40 41 41 38
94 99 108 116 115 125 129 122 116 120 123 123 122 122 117 119 117 112 112 114 114 113 109 105 106 108 106 105 102 100 99 97 99 96 94 89 89 87 85 83 81 81 81 82 82 81 79 77 74 72 70 69 66 63 59 54 46 39 30 20 14 8 353 340 70 58 54 51 70 71 62 35 2 43 48 44 44 45 42 37 38 36 43 45 34
113 119 117 116 117 126 119 107 105 106 107 110 117 122 125 122 123 113 116 119 114 105 109 114 104 105 106 104 106 106 100 101 101 95 93 94 92 87 84 82 82 80 79 80 82 83 82 80 77 75 72 69 66 64 59 50 40 31 19 12 8 4 12 349 71 38 36 75 77 75 61 31 10 17 17 58 40 37 44 39 41 44 37 43 46
114 111 113 117 123 122 106 97 96 94 99 102 101 110 124 130 117 117 116 119 117 112 104 103 108 109 112 114 106 98 98 95 90 88 103 101 95 93 91 89 86 84 83 79 77 78 78 79 77 75 72 69 66 62 57 50 38 21 10 3 2 2 10 9 48 30 14 21 69 63 58 38 17 23 28 30 38 33 35 37 37 34 39 56 50
106 117 122 121 123 126 111 102 98 90 84 82 82 85 96 105 111 118 120 124 121 116 111 109 113 118 105 96 98 103 97 78 61 55 73 94 101 98 98 96 92 89 89 87 84 79 79 80 78 74 71 69 66 60 54 52 43 21 5 353 347 358 359 9 63 68 10 36 67 59 40 26 5 16 18 31 27 32 48 30 29 27 21 15 20
127 134 122 127 133 131 119 118 109 95 82 74 70 71 74 89 120 121 124 121 120 117 122 111 101 100 97 94 94 92 87 76 69 62 57 52 49 73 91 95 95 92 89 89 86 83 82 81 79 76 74 71 66 62 57 53 45 25 349 350 343 343 344 8 336 63 30 26 74 61 42 15 360 1 15 24 33 31 39 33 35 15 6 17 10
140 124 129 138 141 138 129 125 128 119 115 93 71 66 79 90 104 110 112 114 118 105 94 95 93 92 91 92 88 85 80 73 67 62 60 58 55 71 91 92 91 90 86 86 85 86 83 81 78 77 75 74 71 67 64 54 43 15 347 333 334 331 338 337 327 26 37 48 58 49 31 10 3 351 3 18 22 22 22 25 23 9 2 0 354
150 134 138 141 147 142 142 147 149 136 138 124 117 80 84 96 101 104 105 107 93 95 101 99 101 93 97 97 89 88 82 78 67 61 60 62 67 65 74 89 94 93 95 91 92 90 86 80 77 78 77 77 82 79 73 61 33 354 324 326 320 328 323 318 313 46 34 62 64 42 22 10 1 356 358 3 14 11 12 10 8 356 353 357 353
219 133 135 144 147 144 149 161 161 155 160 141 125 117 98 103 106 111 113 112 110 108 109 107 106 108 110 111 108 102 98 92 86 69 64 64 66 70 71 88 104 105 107 102 97 93 89 82 76 79 81 87 101 113 118 130 100 302 304 293 311 322 312 300 1 6 48 70 73 45 29 7 359 356 3 358 7 9 9 6 359 356 356 351 353
247 133 143 151 153 149 158 168 155 172 159 140 132 125 127 112 101 107 120 123 121 119 114 114 111 119 123 132 138 134 131 128 112 93 77 66 67 75 76 61 85 106 109 105 98 94 91 88 81 74 85 142 73 171 224 153 217 249 265 273 308 300 260 346 337 3 60 90 83 60 40 7 356 358 357 359 7 7 7 0 358 357 353 356 356
197 160 151 181 161 163 164 161 158 172 169 136 130 133 148 130 127 128 118 124 126 128 131 136 140 146 156 161 173 161 154 169 127 118 99 86 68 76 78 80 71 68 88 104 100 89 97 92 94 61 277 260 231 299 243 252 223 244 248 263 320 254 303 271 322 319 72 86 80 72 52 21 358 357 355 358 357 5 3 358 357 356 354 355 354
191 170 170 180 179 134 177 163 152 162 154 122 133 144 160 144 147 145 135 148 155 154 161 154 169 162 189 194 214 176 134 100 104 103 105 93 97 89 91 96 96 77 110 89 109 110 102 114 119 265 271 294 254 224 248 228 238 244 268 304 245 4 338 11 16 20 63 96 95 87 65 33 10 358 358 355 357 4 360 356 356 357 356 355 3
179 183 171 155 182 146 196 166 151 142 143 137 141 156 176 166 166 156 151 163 171 196 173 177 181 172 206 210 212 137 114 109 112 122 124 125 115 105 119 126 133 143 153 152 164 158 148 194 232 252 288 272 250 241 317 254 218 212 216 176 15 4 342 312 357 359 354 100 111 101 70 47 15 2 358 358 359 1 358 1 0 358 359 1 5
172 162 173 160 177 163 184 168 144 143 157 152 160 161 179 174 170 156 161 167 175 209 188 184 188 175 205 226 158 117 122 134 143 139 157 143 154 155 160 166 178 179 198 231 197 174 191 207 240 237 243 263 262 26 29 352 335 11 43 32 340 335 313 287 202 11 6 119 119 99 65 41 21 10 4 2 360 4 11 9 6 9 10 16 18
147 154 172 177 172 165 173 167 143 161 166 161 172 168 168 169 154 154 158 177 166 199 183 184 184 166 217 178 117 118 115 138 148 163 185 176 165 176 181 189 186 186 182 223 202 181 201 205 203 220 236 217 79 46 56 307 320 327 315 311 26 343 346 349 346 39 331 107 120 78 60 43 32 25 16 14 12 24 27 20 18 24 24 25 34
149 166 164 184 178 159 166 153 152 161 177 175 181 158 167 168 161 155 176 188 163 182 180 180 173 169 210 195 133 135 193 147 163 185 182 149 183 176 184 181 172 165 195 216 197 181 201 214 202 212 221 43 307 183 221 213 226 254 263 259 58 13 35 345 334 7 333 81 95 77 62 49 40 34 33 33 37 39 41 33 29 33 37 39 36
149 169 165 171 178 161 164 146 162 167 184 175 171 153 164 186 155 145 180 234 163 176 179 177 166 175 199 206 137 148 194 161 158 159 193 195 193 184 179 159 177 169 195 199 155 209 212 244 137 59 257 226 225 222 232 228 240 254 249 117 82 311 139 272 278 320 345 76 107 85 80 53 44 44 49 49 47 45 44 39 36 37 39 43 41
158 173 165 154 175 166 162 159 166 173 180 168 175 156 166 204 150 139 176 254 195 175 182 177 158 165 183 186 172 174 182 170 159 172 179 201 167 147 104 161 168 202 151 225 196 224 216 200 174 205 214 226 213 212 221 290 289 299 314 194 132 337 238 279 275 42 4 64 113 108 75 58 51 53 50 48 46 45 45 43 42 43 43 48 51
167 175 167 158 169 166 168 169 168 175 171 171 196 164 162 184 183 158 170 205 224 246 178 169 162 157 175 193 187 208 176 175 162 176 165 184 148 170 184 206 181 185 171 205 197 213 199 191 210 215 227 245 257 258 156 273 325 318 298 247 124 164 257 269 283 100 51 63 115 103 94 92 75 64 56 49 46 46 46 46 47 49 52 57 60
164 174 167 165 165 167 172 179 165 170 170 178 185 185 159 175 183 159 164 185 207 234 191 163 168 171 169 182 186 221 232 172 161 175 164 161 157 167 198 191 185 176 191 215 181 198 258 190 190 150 32 1 345 324 326 300 274 283 275 193 184 100 301 292 7 66 67 39 69 119 120 114 102 77 59 55 53 51 52 52 57 57 63 68 68
167 170 165 169 164 174 172 181 168 171 171 176 176 186 168 173 176 165 173 179 189 201 189 189 186 190 170 169 174 201 246 231 165 177 165 162 172 173 196 173 191 182 188 217 164 190 235 293 95 86 351 343 307 299 279 265 260 248 258 241 130 96 297 317 31 77 83 48 49 122 126 116 106 84 63 62 60 57 57 61 64 66 70 71 69
202 167 165 169 170 176 173 177 170 172 176 176 172 183 166 169 169 181 177 171 176 192 193 188 179 201 176 159 171 181 213 238 190 168 176 174 175 182 190 178 187 184 199 186 119 111 296 281 273 143 262 266 257 260 257 251 249 289 289 229 133 213 224 106 90 99 92 77 72 55 116 124 103 87 75 68 61 59 65 67 69 69 70 70 67
196 180 163 174 169 175 175 175 177 171 182 174 166 177 175 169 171 181 180 162 170 191 199 181 176 189 183 165 174 187 189 223 186 179 180 202 201 178 179 182 189 198 138 125 137 207 245 229 227 181 219 226 240 247 230 116 302 292 278 214 135 202 169 141 123 135 110 94 91 65 75 96 120 106 88 76 64 57 67 73 76 73 70 68 64
185 187 180 171 168 174 178 177 179 172 178 182 174 176 178 170 171 178 187 165 172 187 195 184 182 190 175 178 180 194 192 199 202 171 188 195 222 198 177 196 200 162 127 149 161 208 220 229 212 229 244 247 252 269 202 198 228 247 250 131 81 52 346 224 138 111 103 117 98 93 87 73 77 123 117 98 74 60 64 72 75 73 70 64 60
186 185 189 176 172 173 178 179 177 171 181 188 182 173 177 174 172 178 184 170 175 182 187 195 193 188 176 177 180 191 195 197 203 186 176 188 203 195 194 197 199 148 158 177 185 222 243 244 231 190 234 276 267 269 255 222 217 245 193 92 144 111 283 317 130 107 114 105 103 106 105 99 76 97 138 111 102 82 74 71 72 72 67 61 57
185 185 183 185 188 169 172 178 176 181 176 186 186 180 178 174 175 179 181 174 180 185 188 188 200 194 187 174 179 183 193 198 200 195 181 182 203 200 195 188 191 175 167 188 196 205 211 226 260 216 195 229 279 279 276 264 326 75 47 42 251 177 233 233 110 152 102 96 87 82 101 101 82 74 91 121 116 110 94 85 69 68 66 59 55
187 188 186 183 189 182 172 177 170 182 176 181 188 187 190 177 177 176 180 176 184 188 187 184 192 199 194 183 174 180 186 193 199 195 194 194 192 200 206 185 182 176 176 185 204 206 206 194 227 238 202 203 241 299 331 28 37 26 9 330 287 250 86 96 145 78 99 99 98 92 116 109 92 87 84 98 125 124 114 100 92 82 76 65 56
185 191 189 182 183 184 176 175 174 176 183 176 181 183 190 199 187 178 183 182 182 192 190 189 190 193 197 193 172 177 181 187 193 194 189 201 201 198 200 199 168 164 166 190 206 219 229 214 207 250 224 156 143 170 278 29 356 299 248 248 251 202 112 119 84 94 115 123 147 142 101 108 104 93 95 84 104 135 135 121 104 93 83 78 63
182 188 191 185 182 186 171 175 182 184 181 182 171 177 180 192 200 203 190 188 184 188 201 197 192 193 197 192 180 174 177 184 189 193 191 193 202 203 197 195 176 167 179 190 201 200 207 217 219 221 232 166 140 173 55 16 325 297 269 252 240 184 133 149 117 131 117 147 129 100 96 103 105 105 103 96 87 91 102 110 115 108 105 89 78
189 186 191 193 187 187 177 181 186 183 183 187 193 184 181 186 200 205 204 187 188 190 192 196 205 202 193 191 186 178 177 184 188 190 195 196 198 200 194 196 188 182 185 194 194 203 203 194 201 199 196 192 219 185 175 102 9 327 283 237 241 181 150 135 162 132 146 133 104 97 91 76 90 112 118 106 93 87 81 78 97 125 123 110 75
200 193 193 194 192 189 193 190 175 186 188 189 190 197 198 194 188 196 193 197 189 184 186 186 203 218 214 196 190 185 186 184 188 190 193 195 198 200 196 195 189 189 191 192 193 205 206 187 176 188 189 192 214 185 170 115 260 207 284 267 9 39 122 182 150 152 127 110 106 97 100 98 93 127 120 107 96 90 87 83 72 76 99 94 81
198 198 196 193 196 197 198 193 189 184 191 191 188 196 194 195 192 195 197 202 206 184 184 187 188 208 224 216 199 191 189 192 186 188 190 195 197 199 202 194 192 186 189 195 193 200 202 200 181 173 194 203 182 181 160 165 191 223 230 86 251 98 328 1 276 147 141 130 111 107 118 119 124 120 126 115 108 102 94 92 86 81 78 99 96
199 205 202 200 199 201 199 195 195 193 191 195 197 193 191 191 196 196 203 205 196 178 186 184 192 206 226 224 217 203 195 195 193 188 192 193 193 197 200 199 193 187 189 193 197 200 196 197 186 187 167 171 187 229 186 185 177 174 272 188 213 149 139 251 206 247 145 135 126 129 118 143 153 102 92 105 113 110 109 102 99 96 90 99 107
201 202 202 202 203 202 199 197 195 196 196 192 193 190 185 188 187 194 197 208 224 192 183 202 200 204 212 219 219 208 206 203 201 198 194 196 196 198 200 201 194 192 191 197 200 202 198 193 187 186 192 179 195 192 211 186 200 206 199 277 291 47 211 189 137 236 124 113 128 128 140 121 117 122 112 114 118 121 118 110 110 98 95 98 101
203 206 202 205 204 202 200 202 203 201 200 194 188 187 194 190 181 187 200 200 205 202 201 199 195 199 207 209 217 215 211 209 206 204 198 197 201 202 203 201 198 194 195 199 200 194 197 191 193 191 195 197 180 178 179 218 215 229 218 204 180 176 165 222 109 207 239 167 160 147 153 143 129 120 116 113 118 123 125 135 131 119 108 98 97
209 200 198 202 202 201 197 198 202 203 199 193 185 188 196 200 199 199 201 202 204 212 209 198 198 203 196 203 208 213 214 212 212 207 204 199 202 204 205 207 206 201 197 197 199 199 196 197 191 191 194 191 184 175 178 187 219 267 247 221 148 121 139 129 201 117 163 186 162 144 140 137 128 117 122 127 132 129 142 147 141 137 119 103 85
201 185 198 197 199 200 193 196 199 201 197 189 186 190 198 201 204 208 207 210 209 210 199 202 197 191 198 202 202 208 210 211 210 210 207 201 201 204 205 208 209 208 199 203 200 194 193 197 191 190 190 190 192 183 178 169 176 210 210 220 184 146 103 113 144 159 159 164 219 358 88 148 119 133 141 138 130 143 145 137 130 134 119 104 90
182 192 195 197 196 196 197 195 199 199 198 192 193 191 196 199 205 211 216 219 215 214 196 194 198 195 202 199 199 203 207 208 206 206 205 205 199 204 204 207 208 206 198 199 196 191 195 195 193 190 190 180 183 183 165 179 186 194 174 214 168 149 127 144 162 127 152 151 215 173 178 87 99 143 135 137 151 152 154 145 132 139 125 118 108
192 192 193 188 194 194 199 199 205 200 196 196 196 197 195 195 205 212 216 217 212 210 193 200 198 191 205 203 196 195 198 203 205 202 205 207 203 201 206 210 210 205 195 197 195 197 200 200 196 189 181 174 177 178 178 178 197 191 184 174 165 145 106 257 269 178 169 151 167 196 175 168 172 222 161 147 161 176 151 132 121 122 122 123 123
178 178 184 188 188 196 201 203 209 200 198 200 195 201 196 198 208 210 213 215 207 202 200 206 194 191 201 206 206 197 191 199 201 212 210 208 211 204 208 212 208 203 197 197 199 199 199 196 187 182 181 179 179 180 186 185 192 187 185 181 183 175 180 185 203 198 178 169 146 190 173 186 172 161 213 168 161 165 137 131 128 123 122 114 111